PBO Station Position Time Series. Reference Frame : NAM14
Format Version,1.1.0
4-character ID,HLFX
Station name,HalifaxCandada
Begin Date, 2002-12-20
End Date, 2019-10-07
Release Date, 2019-10-08
Reference position, 44.6835498957 North Latitude, -63.6112806408 East Longitude, 3.09976 meters elevation,
Date, North (mm), East (mm), Vertical (mm), North Std. Deviation (mm), East Std. Deviation (mm),              Vertical Std. Deviation (mm), Quality,
2002-12-20,0.00, 0.00, 0.00, 2.44, 1.77, 8.12, repro,
2002-12-21,-5.05, -0.31, 6.93, 2.47, 1.77, 8.25, repro,
2002-12-22,-0.20, -0.35, 4.48, 2.53, 1.81, 8.52, repro,
2002-12-23,-1.62, 0.08, 5.35, 2.39, 1.74, 8.12, repro,
2002-12-24,-0.53, -1.15, 4.53, 2.37, 1.71, 7.88, repro,
2002-12-25,-0.89, -1.36, 3.52, 2.52, 1.76, 8.16, repro,
2002-12-26,-4.70, -1.50, -11.41, 2.34, 1.69, 7.81, repro,
2002-12-27,-2.00, -2.51, -15.95, 2.55, 1.78, 8.34, repro,
2002-12-28,-5.24, -0.38, -12.21, 2.51, 1.76, 8.18, repro,
2002-12-29,-8.89, 0.35, 3.05, 2.38, 1.78, 8.12, repro,
2002-12-30,-2.86, 0.12, -5.25, 2.47, 1.83, 8.42, repro,
2002-12-31,-0.87, 0.46, -6.92, 2.37, 1.71, 7.92, repro,
2003-01-01,-2.97, -1.40, 5.42, 2.41, 1.77, 8.07, repro,
2003-01-02,0.63, -1.65, -0.23, 2.57, 1.93, 8.83, repro,
2003-01-03,2.86, -1.52, -11.40, 2.72, 1.93, 8.99, repro,
2003-01-04,0.56, -1.89, -16.39, 2.60, 1.88, 8.62, repro,
2003-01-05,-5.86, -4.06, 0.58, 2.38, 1.78, 8.15, repro,
2003-01-06,-0.64, -4.08, -9.40, 2.74, 1.94, 8.99, repro,
2003-01-07,-0.08, -3.44, -2.49, 2.63, 1.88, 8.64, repro,
2003-01-08,-1.74, -3.01, 2.55, 2.57, 1.91, 8.69, repro,
2003-01-09,-2.75, -5.84, 2.43, 2.39, 1.78, 8.10, repro,
2003-01-10,-5.21, -7.64, -5.70, 2.42, 1.77, 8.16, repro,
2003-01-11,-4.82, -6.20, -3.97, 2.39, 1.76, 8.05, repro,
2003-01-12,-3.25, -8.16, -10.72, 2.36, 1.73, 7.92, repro,
2003-01-13,-3.27, -8.72, -8.14, 2.40, 1.79, 8.13, repro,
2003-01-14,-5.57, 1.00, 4.05, 2.39, 1.78, 8.12, repro,
2003-01-15,-2.51, 2.80, -8.48, 2.38, 1.77, 8.01, repro,
2003-01-16,-2.49, 2.52, -5.01, 2.37, 1.77, 8.03, repro,
2003-01-17,-3.73, 0.87, 5.79, 2.51, 1.93, 8.60, repro,
2003-01-18,-4.29, 0.89, 3.36, 2.34, 1.74, 7.93, repro,
2003-01-19,-1.63, 2.87, -8.06, 2.46, 1.83, 8.28, repro,
2003-01-20,-2.72, 1.80, 4.88, 2.36, 1.73, 7.87, repro,
2003-01-21,-5.11, 0.36, 16.36, 2.37, 1.70, 7.76, repro,
2003-01-22,-4.76, 0.26, 18.34, 2.41, 1.72, 7.82, repro,
2003-01-23,-3.80, 1.43, 11.20, 2.49, 1.87, 8.52, repro,
2003-01-24,-1.04, 1.10, 0.44, 2.45, 1.79, 8.20, repro,
2003-01-25,-1.44, -1.01, 8.67, 2.68, 1.89, 8.63, repro,
2003-01-26,-2.80, -0.59, 2.59, 2.39, 1.73, 7.91, repro,
2003-01-27,-0.43, -0.07, -6.06, 2.74, 1.93, 8.76, repro,
2003-01-28,-3.44, -0.76, -5.72, 2.78, 2.03, 9.14, repro,
2003-01-29,-2.92, -2.02, 9.86, 2.62, 2.01, 8.99, repro,
2003-01-30,-1.48, -2.16, 4.80, 2.73, 1.99, 9.14, repro,
2003-01-31,-2.29, -1.25, 8.71, 2.65, 1.89, 8.64, repro,
2003-02-01,-3.06, -0.43, 6.25, 2.43, 1.80, 8.17, repro,
2003-02-02,-4.47, -1.20, 14.57, 2.40, 1.84, 8.29, repro,
2003-02-03,-6.45, -4.24, 7.34, 2.58, 1.93, 8.84, repro,
2003-02-04,-2.09, -0.02, 14.17, 2.62, 1.89, 8.51, repro,
2003-02-05,-1.96, 1.95, 3.17, 2.64, 2.03, 9.01, repro,
2003-02-06,-2.19, -0.81, 19.16, 2.61, 1.99, 8.93, repro,
2003-02-07,-4.34, -1.28, 14.13, 2.97, 2.23, 9.84, repro,
2003-02-08,-2.22, -1.34, 9.51, 2.57, 1.98, 8.85, repro,
2003-02-09,-6.61, -1.34, 7.17, 2.71, 2.00, 9.02, repro,
2003-02-10,-1.28, -0.86, 1.05, 2.73, 2.03, 9.20, repro,
2003-02-11,-5.67, -4.48, 6.51, 2.45, 1.82, 8.25, repro,
2003-02-12,-14.86, -2.91, -3.81, 2.52, 1.79, 8.13, repro,
2003-02-13,-7.70, -5.27, -1.42, 2.38, 1.77, 7.98, repro,
2003-02-14,-5.60, -4.04, 6.33, 2.35, 1.73, 7.84, repro,
2003-02-15,-5.11, -2.75, 5.40, 2.63, 1.93, 8.66, repro,
2003-02-16,-1.26, -0.56, -5.72, 2.45, 1.86, 8.33, repro,
2003-02-17,-2.77, 0.25, -5.83, 2.76, 1.97, 8.86, repro,
2003-02-18,-0.72, -0.09, -5.04, 2.63, 1.96, 8.72, repro,
2003-02-19,-0.12, -2.73, -5.67, 2.37, 1.78, 8.09, repro,
2003-02-20,-3.68, -1.63, 3.11, 2.33, 1.65, 7.55, repro,
2003-02-21,-1.62, -0.78, 7.30, 2.25, 1.64, 7.51, repro,
2003-02-22,-1.25, -0.29, 1.69, 2.48, 1.81, 8.09, repro,
2003-02-23,1.46, 1.61, -2.69, 2.28, 1.69, 7.79, repro,
2003-02-24,-2.65, -1.87, 7.27, 2.40, 1.72, 7.91, repro,
2003-02-25,-2.88, -0.74, 2.99, 2.27, 1.67, 7.59, repro,
2003-02-26,-0.88, -0.58, -0.22, 2.39, 1.76, 7.94, repro,
2003-02-27,0.20, -1.56, -2.72, 2.40, 1.73, 7.96, repro,
2003-02-28,-1.07, -0.62, 0.11, 2.28, 1.68, 7.66, repro,
2003-03-01,-0.67, -2.67, 3.72, 2.35, 1.72, 7.85, repro,
2003-03-02,-0.75, -0.45, 1.57, 2.32, 1.67, 7.74, repro,
2003-03-03,-3.13, -0.18, 4.95, 2.30, 1.65, 7.65, repro,
2003-03-04,-0.07, -1.40, 12.26, 2.38, 1.74, 8.01, repro,
2003-03-05,-1.88, -1.67, 8.64, 2.36, 1.74, 7.96, repro,
2003-03-06,0.13, -1.30, 8.22, 2.22, 1.64, 7.44, repro,
2003-03-07,-0.47, -2.36, 8.02, 2.43, 1.76, 8.06, repro,
2003-03-08,-1.22, -1.05, 4.08, 2.37, 1.71, 7.85, repro,
2003-03-09,-2.13, -2.05, 5.23, 2.23, 1.64, 7.46, repro,
2003-03-10,-1.28, -1.40, 10.02, 2.22, 1.65, 7.49, repro,
2003-03-11,0.56, -1.71, 3.00, 2.23, 1.67, 7.48, repro,
2003-03-12,-2.04, -2.75, 5.53, 2.33, 1.72, 7.89, repro,
2003-03-13,-0.92, -1.54, 1.66, 2.33, 1.71, 7.84, repro,
2003-03-14,-1.26, -1.22, 2.32, 2.43, 1.82, 8.21, repro,
2003-03-15,2.09, -1.71, 0.26, 2.42, 1.80, 8.15, repro,
2003-03-16,-1.12, -2.14, 12.06, 2.42, 1.78, 8.14, repro,
2003-03-17,-1.27, -2.22, 13.43, 2.39, 1.76, 8.05, repro,
2003-03-18,0.24, -1.85, 7.35, 2.47, 1.77, 8.12, repro,
2003-03-19,-2.70, -2.44, -0.41, 2.40, 1.75, 7.98, repro,
2003-03-20,-0.59, -1.57, 7.27, 2.39, 1.71, 7.90, repro,
2003-03-21,-1.22, -2.26, 8.42, 2.30, 1.70, 7.75, repro,
2003-03-22,0.14, -0.80, 6.66, 2.39, 1.73, 7.92, repro,
2003-03-23,-3.82, -3.04, 2.65, 2.35, 1.71, 7.76, repro,
2003-03-24,-3.35, -5.44, 10.51, 2.30, 1.67, 7.63, repro,
2003-03-25,-0.54, -1.04, 6.44, 2.58, 1.91, 8.60, repro,
2003-03-26,-1.80, -2.72, 8.67, 2.60, 2.01, 8.87, repro,
2003-03-27,-2.57, -3.51, 2.43, 2.53, 1.83, 8.17, repro,
2003-03-28,-0.67, -3.48, 9.89, 2.35, 1.73, 7.84, repro,
2003-03-29,-0.92, -1.31, 3.16, 2.53, 1.87, 8.33, repro,
2003-03-30,-5.23, -4.80, 0.80, 2.43, 1.80, 8.11, repro,
2003-03-31,-3.79, -3.51, 4.95, 2.38, 1.74, 7.89, repro,
2003-04-01,-0.14, -1.48, 7.20, 2.45, 1.82, 8.14, repro,
2003-04-02,-1.12, -2.15, 1.77, 2.35, 1.77, 7.85, repro,
2003-04-03,-1.04, -2.15, 4.42, 2.29, 1.73, 7.82, repro,
2003-04-04,-0.02, 0.40, -4.38, 2.39, 1.84, 8.12, repro,
2003-04-05,-0.00, -0.68, -4.16, 2.27, 1.66, 7.63, repro,
2003-04-06,0.01, 15.17, -5.10, 2.37, 1.75, 7.72, repro,
2003-04-07,-0.52, -1.84, 0.17, 2.36, 1.77, 8.02, repro,
2003-04-08,-0.36, -1.59, -1.17, 2.24, 1.68, 7.56, repro,
2003-04-09,-0.25, -1.63, 2.19, 2.27, 1.64, 7.53, repro,
2003-04-10,-1.83, -2.47, 7.14, 2.37, 1.69, 7.82, repro,
2003-04-11,-0.55, -2.06, 6.34, 2.26, 1.68, 7.67, repro,
2003-04-12,-2.77, -0.22, 11.02, 2.21, 1.63, 7.45, repro,
2003-04-13,-0.74, -2.04, 4.70, 2.16, 1.61, 7.26, repro,
2003-04-14,-0.01, -1.92, 6.03, 2.16, 1.61, 7.26, repro,
2003-04-15,-1.35, -0.95, 20.17, 2.20, 1.62, 7.36, repro,
2003-04-16,-0.52, -0.87, 18.87, 2.17, 1.62, 7.38, repro,
2003-04-17,-1.22, -1.44, 10.80, 2.23, 1.66, 7.55, repro,
2003-04-18,-0.70, -2.58, 6.17, 2.21, 1.63, 7.40, repro,
2003-04-19,0.99, -1.78, 1.41, 2.16, 1.61, 7.28, repro,
2003-04-20,-0.59, -2.12, 7.35, 2.21, 1.65, 7.41, repro,
2003-04-21,-1.39, -0.99, 13.22, 2.28, 1.67, 7.63, repro,
2003-04-22,-1.06, -1.36, 14.48, 2.22, 1.67, 7.54, repro,
2003-04-23,-1.01, -1.69, 15.34, 2.17, 1.61, 7.34, repro,
2003-04-24,-1.22, -1.58, 12.50, 2.18, 1.61, 7.37, repro,
2003-04-25,-1.18, -2.42, 16.04, 2.15, 1.60, 7.26, repro,
2003-04-26,-1.55, -1.64, 12.99, 2.22, 1.62, 7.50, repro,
2003-04-27,-0.53, -0.86, 9.07, 2.26, 1.68, 7.66, repro,
2003-04-28,-0.19, -0.93, 10.74, 2.19, 1.65, 7.66, repro,
2003-04-29,-1.61, -0.80, 18.98, 2.15, 1.61, 7.33, repro,
2003-04-30,-1.52, -2.51, 13.12, 2.35, 1.72, 7.82, repro,
2003-05-01,-1.17, -2.45, 8.67, 2.26, 1.69, 7.66, repro,
2003-05-02,-2.34, -2.75, 4.71, 2.22, 1.64, 7.47, repro,
2003-05-03,-1.03, 0.49, 8.92, 2.17, 1.62, 7.37, repro,
2003-05-04,-0.89, -1.99, 10.78, 2.34, 1.68, 7.76, repro,
2003-05-05,-0.74, -1.42, 6.99, 2.16, 1.61, 7.36, repro,
2003-05-06,-2.37, -1.68, 10.52, 2.21, 1.64, 7.49, repro,
2003-05-07,-1.38, -2.21, 10.81, 2.26, 1.73, 7.87, repro,
2003-05-08,-2.20, -0.92, 8.41, 2.26, 1.68, 7.66, repro,
2003-05-09,-2.17, -0.53, 12.51, 2.28, 1.68, 7.70, repro,
2003-05-10,-1.31, 0.38, 17.17, 2.19, 1.62, 7.37, repro,
2003-05-11,0.31, -0.93, 20.36, 2.21, 1.63, 7.47, repro,
2003-05-12,-1.80, -2.73, 20.59, 2.22, 1.64, 7.48, repro,
2003-05-13,-2.07, -0.32, 12.75, 2.32, 1.67, 7.59, repro,
2003-05-14,-0.76, -0.90, 14.20, 2.28, 1.68, 7.69, repro,
2003-05-15,1.05, -1.91, 11.38, 2.35, 1.73, 7.90, repro,
2003-05-16,-0.51, -0.82, 14.51, 2.16, 1.63, 7.37, repro,
2003-05-17,-0.46, -2.80, 11.82, 2.31, 1.71, 7.74, repro,
2003-05-18,-1.14, -2.36, 4.20, 2.25, 1.66, 7.53, repro,
2003-05-19,-0.42, -1.87, 9.78, 2.19, 1.64, 7.39, repro,
2003-05-20,-0.53, -1.74, 7.45, 2.23, 1.64, 7.47, repro,
2003-05-21,-3.42, -1.89, 13.82, 2.33, 1.71, 7.85, repro,
2003-05-22,-0.93, -2.08, 10.73, 2.18, 1.62, 7.40, repro,
2003-05-23,-1.78, -2.52, 7.17, 2.25, 1.65, 7.56, repro,
2003-05-24,-1.93, -1.96, 5.55, 2.12, 1.59, 7.22, repro,
2003-05-25,-2.42, -2.46, 19.46, 2.19, 1.64, 7.37, repro,
2003-05-26,-2.58, -1.46, 12.82, 2.25, 1.67, 7.59, repro,
2003-05-27,-3.45, -2.81, 13.79, 2.25, 1.69, 7.68, repro,
2003-05-28,-3.31, -1.91, 17.77, 2.27, 1.71, 7.73, repro,
2003-05-29,-2.88, -2.19, 12.00, 4.64, 3.65, 16.16, repro,
2003-05-30,-3.64, -1.40, 20.37, 2.31, 1.74, 7.90, repro,
2003-05-31,-1.77, -0.12, 15.27, 3.25, 2.36, 10.90, repro,
2003-06-01,-2.38, -0.85, 23.69, 2.14, 1.62, 7.29, repro,
2003-06-02,-0.41, -1.34, 21.55, 2.45, 1.81, 8.26, repro,
2003-06-03,-2.19, -1.87, 15.84, 2.23, 1.70, 7.71, repro,
2003-06-04,-1.56, -1.24, 12.30, 2.23, 1.70, 7.74, repro,
2003-06-05,-3.44, -0.40, 14.13, 2.30, 1.76, 7.97, repro,
2003-06-06,0.47, -1.19, 15.10, 2.25, 1.71, 7.71, repro,
2003-06-07,-0.46, -2.93, 12.48, 2.11, 1.61, 7.26, repro,
2003-06-08,-1.06, -1.43, 14.06, 2.18, 1.68, 7.53, repro,
2003-06-09,-1.79, -0.77, 17.25, 2.12, 1.64, 7.39, repro,
2003-06-10,-2.91, -0.19, 16.89, 2.14, 1.64, 7.48, repro,
2003-06-11,-2.18, -0.35, 14.19, 2.13, 1.63, 7.36, repro,
2003-06-12,-2.37, -1.98, 6.30, 2.17, 1.68, 7.55, repro,
2003-06-13,-0.84, -1.23, 12.87, 2.15, 1.64, 7.38, repro,
2003-06-14,-0.21, -1.64, 13.20, 2.15, 1.66, 7.47, repro,
2003-06-15,-1.21, -1.57, 10.94, 2.18, 1.67, 7.48, repro,
2003-06-16,-1.38, -1.26, 6.49, 2.19, 1.68, 7.56, repro,
2003-06-17,-1.07, -1.77, 10.51, 2.19, 1.65, 7.42, repro,
2003-06-18,-1.95, -1.41, 15.49, 2.13, 1.63, 7.33, repro,
2003-06-19,-1.82, -2.12, 11.76, 2.28, 1.74, 7.91, repro,
2003-06-20,-3.93, -0.81, 22.90, 2.14, 1.64, 7.36, repro,
2003-06-21,-1.12, -1.13, 15.07, 2.17, 1.67, 7.45, repro,
2003-06-22,-2.79, -0.60, 22.25, 2.13, 1.70, 7.55, repro,
2003-06-23,-3.58, -0.02, 15.13, 2.15, 1.65, 7.45, repro,
2003-06-24,-2.56, -0.09, 14.30, 2.17, 1.68, 7.49, repro,
2003-06-25,-3.10, -0.48, 19.83, 2.18, 1.68, 7.52, repro,
2003-06-26,-1.17, -0.56, 13.19, 2.21, 1.67, 7.55, repro,
2003-06-27,-1.72, -0.56, 14.41, 2.17, 1.64, 7.37, repro,
2003-06-28,-0.36, 0.08, 11.90, 2.19, 1.66, 7.48, repro,
2003-06-29,-1.73, -2.48, 8.51, 2.21, 1.64, 7.48, repro,
2003-06-30,-0.52, -0.82, 11.12, 2.13, 1.64, 7.37, repro,
2003-07-01,-2.92, -0.06, 15.00, 2.26, 1.72, 7.85, repro,
2003-07-02,-3.48, -1.46, 14.53, 2.18, 1.65, 7.43, repro,
2003-07-03,-1.50, -0.88, 19.24, 2.17, 1.65, 7.45, repro,
2003-07-04,-0.70, -0.73, 8.19, 2.21, 1.66, 7.55, repro,
2003-07-05,-2.22, -1.41, 20.45, 2.14, 1.64, 7.42, repro,
2003-07-06,-4.42, -1.04, 14.99, 2.14, 1.66, 7.50, repro,
2003-07-07,-3.87, -1.87, 15.94, 2.18, 1.64, 7.42, repro,
2003-07-08,-3.36, -1.95, 10.90, 2.19, 1.64, 7.43, repro,
2003-07-09,-2.09, -0.83, 18.45, 2.22, 1.66, 7.59, repro,
2003-07-10,-3.08, -2.69, 10.31, 2.21, 1.65, 7.48, repro,
2003-07-11,-3.91, -0.17, 10.86, 2.22, 1.71, 7.75, repro,
2003-07-12,-3.50, -1.00, 15.21, 2.21, 1.67, 7.55, repro,
2003-07-13,-4.10, -3.57, 11.57, 2.17, 1.64, 7.37, repro,
2003-07-14,-2.65, -2.57, 9.14, 2.22, 1.69, 7.62, repro,
2003-07-15,-2.42, -2.85, 15.60, 2.25, 1.67, 7.64, repro,
2003-07-16,-2.83, -3.19, 17.22, 2.21, 1.65, 7.51, repro,
2003-07-17,-3.06, 0.97, 10.70, 2.25, 1.77, 7.90, repro,
2003-07-18,-2.36, -2.90, 22.09, 2.10, 1.62, 7.21, repro,
2003-07-19,-0.84, -1.57, 18.10, 2.19, 1.65, 7.47, repro,
2003-07-20,-2.05, -2.08, 17.20, 2.26, 1.70, 7.68, repro,
2003-07-21,-1.21, -1.93, 16.70, 2.28, 1.68, 7.61, repro,
2003-07-22,-3.04, -3.69, 9.04, 2.14, 1.63, 7.39, repro,
2003-07-23,-5.89, -4.02, 13.67, 2.13, 1.64, 7.38, repro,
2003-07-24,-4.20, -3.89, 13.68, 2.13, 1.64, 7.43, repro,
2003-07-25,-6.37, -6.99, 13.21, 2.22, 1.67, 7.58, repro,
2003-07-26,-2.87, -1.90, 22.90, 2.22, 1.66, 7.51, repro,
2003-07-27,-0.41, -1.78, 18.28, 2.15, 1.65, 7.48, repro,
2003-07-28,-2.93, -3.26, 11.37, 2.24, 1.72, 7.76, repro,
2003-07-29,-2.90, -1.01, 17.36, 2.19, 1.66, 7.46, repro,
2003-07-30,-1.70, -2.60, 17.03, 2.13, 1.64, 7.39, repro,
2003-07-31,-2.68, -2.83, 19.82, 2.12, 1.63, 7.39, repro,
2003-08-01,-2.80, -1.39, 6.78, 2.17, 1.68, 7.56, repro,
2003-08-02,-0.80, -1.57, 19.95, 2.13, 1.62, 7.30, repro,
2003-08-03,-4.12, -0.92, 19.30, 2.21, 1.65, 7.55, repro,
2003-08-04,-1.31, -0.47, 17.49, 2.20, 1.66, 7.52, repro,
2003-08-05,-3.34, -2.02, 26.96, 2.12, 1.63, 7.37, repro,
2003-08-06,-4.18, -1.17, 15.45, 2.11, 1.65, 7.40, repro,
2003-08-07,-3.40, -0.32, 19.80, 2.11, 1.62, 7.25, repro,
2003-08-08,-3.60, -2.04, 14.46, 2.13, 1.62, 7.33, repro,
2003-08-09,-1.52, -0.36, 11.03, 2.14, 1.64, 7.39, repro,
2003-08-10,-2.27, -0.87, 2.64, 2.13, 1.64, 7.36, repro,
2003-08-11,-4.30, -3.72, -0.28, 2.10, 1.64, 7.30, repro,
2003-08-12,-3.72, -2.10, 15.18, 2.10, 1.63, 7.27, repro,
2003-08-13,-3.55, -2.57, 7.47, 2.12, 1.63, 7.30, repro,
2003-08-14,-3.62, -3.12, 17.12, 2.14, 1.65, 7.46, repro,
2003-08-15,-2.48, 0.60, 9.74, 2.14, 1.64, 7.39, repro,
2003-08-16,-4.34, -1.45, 18.93, 2.12, 1.64, 7.38, repro,
2003-08-17,-3.47, -3.65, 10.52, 2.11, 1.65, 7.39, repro,
2003-08-18,-5.38, -2.44, 18.88, 2.12, 1.66, 7.41, repro,
2003-08-19,-1.63, -0.34, 10.96, 2.14, 1.64, 7.37, repro,
2003-08-20,-3.63, -0.70, 13.26, 2.22, 1.74, 7.79, repro,
2003-08-21,-2.25, -0.82, 15.33, 2.12, 1.64, 7.39, repro,
2003-08-22,-6.47, -0.09, 15.24, 2.27, 1.74, 7.92, repro,
2003-08-23,-1.22, -1.14, 12.62, 2.17, 1.68, 7.61, repro,
2003-08-24,-1.88, -0.98, 10.24, 2.11, 1.63, 7.32, repro,
2003-08-25,-3.64, -1.24, 14.74, 2.14, 1.63, 7.35, repro,
2003-08-26,-2.38, -0.58, 16.43, 2.14, 1.64, 7.34, repro,
2003-08-27,-3.41, -0.09, 21.11, 2.17, 1.67, 7.51, repro,
2003-08-28,-4.10, -0.58, 15.92, 2.20, 1.64, 7.46, repro,
2003-08-29,-3.38, -1.46, 13.80, 2.12, 1.63, 7.35, repro,
2003-08-30,-1.65, -2.77, 3.03, 2.21, 1.67, 7.64, repro,
2003-08-31,-3.90, -2.48, 13.58, 2.13, 1.63, 7.33, repro,
2003-09-01,-2.22, -0.23, 13.45, 2.21, 1.66, 7.48, repro,
2003-09-02,-1.28, -1.26, 14.19, 2.13, 1.63, 7.34, repro,
2003-09-03,-1.50, -1.28, 7.85, 2.12, 1.63, 7.34, repro,
2003-09-04,-1.73, -0.32, 19.44, 2.18, 1.69, 7.64, repro,
2003-09-05,-1.90, -0.89, 20.11, 2.14, 1.65, 7.42, repro,
2003-09-06,-2.55, -1.61, 9.44, 2.15, 1.63, 7.36, repro,
2003-09-07,-3.49, -0.51, 12.99, 2.14, 1.64, 7.33, repro,
2003-09-08,-3.36, -0.36, 16.85, 2.15, 1.65, 7.42, repro,
2003-09-09,-3.76, -1.45, 12.67, 2.12, 1.63, 7.30, repro,
2003-09-10,-1.87, -1.33, 12.32, 2.17, 1.67, 7.48, repro,
2003-09-11,-1.90, -1.42, 12.22, 2.15, 1.63, 7.33, repro,
2003-09-12,-3.15, -2.39, 19.78, 2.17, 1.67, 7.48, repro,
2003-09-13,-2.57, -2.51, 18.15, 2.18, 1.69, 7.60, repro,
2003-09-14,-3.31, -2.65, 14.89, 2.15, 1.64, 7.39, repro,
2003-09-15,-2.43, -1.94, 15.30, 2.16, 1.66, 7.45, repro,
2003-09-16,-3.56, -2.59, 7.68, 2.20, 1.68, 7.60, repro,
2003-09-17,-2.76, -2.03, 13.08, 2.16, 1.66, 7.51, repro,
2003-09-18,-3.19, -3.32, 17.33, 2.12, 1.63, 7.28, repro,
2003-09-19,-1.42, -1.88, 9.17, 2.18, 1.69, 7.62, repro,
2003-09-20,-1.08, -2.69, 14.33, 2.19, 1.67, 7.57, repro,
2003-09-21,-2.40, -2.40, 5.49, 2.25, 1.74, 7.75, repro,
2003-09-22,-2.60, -3.20, 11.37, 2.22, 1.68, 7.52, repro,
2003-09-23,-1.90, -1.86, 6.38, 2.18, 1.69, 7.58, repro,
2003-09-24,-3.51, -0.75, 13.92, 2.26, 1.76, 8.18, repro,
2003-09-25,-2.88, -2.78, 10.25, 2.22, 1.72, 7.79, repro,
2003-09-26,-1.01, -1.80, 23.13, 2.24, 1.73, 7.81, repro,
2003-09-27,-1.92, -0.84, 10.34, 2.21, 1.72, 7.67, repro,
2003-09-28,-1.83, -2.11, 10.99, 2.18, 1.69, 7.51, repro,
2003-09-29,-7.58, 32.01, -0.04, 9.78, 17.89, 36.16, repro,
2003-10-08,-3.41, -0.88, 9.56, 3.41, 2.59, 12.02, repro,
2003-10-09,-0.71, -2.23, 14.15, 2.17, 1.67, 7.50, repro,
2003-10-10,-1.08, -2.25, 17.76, 2.24, 1.71, 7.68, repro,
2003-10-11,-0.76, -2.21, 18.28, 2.16, 1.65, 7.41, repro,
2003-10-12,-0.39, 0.21, 23.74, 2.24, 1.76, 7.87, repro,
2003-10-13,-2.32, -2.49, 26.78, 2.18, 1.67, 7.48, repro,
2003-10-14,-0.22, -1.65, 23.67, 2.20, 1.68, 7.62, repro,
2003-10-15,-0.89, -1.37, 19.51, 2.18, 1.65, 7.46, repro,
2003-10-16,-2.33, -3.18, 21.07, 2.13, 1.61, 7.24, repro,
2003-10-17,-0.30, -1.96, 18.99, 2.14, 1.62, 7.31, repro,
2003-10-18,-0.32, -0.92, 11.20, 2.13, 1.61, 7.23, repro,
2003-10-19,-2.34, -1.26, 16.92, 2.18, 1.65, 7.45, repro,
2003-10-20,-1.39, -1.43, 19.35, 2.18, 1.65, 7.46, repro,
2003-10-21,-1.79, -1.89, 22.99, 2.13, 1.61, 7.29, repro,
2003-10-22,-2.09, -0.91, 22.26, 2.30, 1.73, 7.76, repro,
2003-10-23,-2.39, -1.43, 23.22, 2.12, 1.64, 7.39, repro,
2003-10-24,-2.11, -1.59, 12.47, 2.14, 1.64, 7.42, repro,
2003-10-25,-0.80, -1.23, 12.81, 2.12, 1.60, 7.22, repro,
2003-10-26,-1.48, -0.90, 14.83, 2.12, 1.61, 7.37, repro,
2003-10-27,-1.21, -3.39, 18.74, 2.23, 1.66, 7.56, repro,
2003-10-28,-3.80, -3.06, 19.50, 2.20, 1.68, 7.55, repro,
2003-10-29,-0.78, -3.13, 15.64, 2.52, 1.91, 8.56, repro,
2003-10-30,-4.71, -2.91, 16.74, 2.79, 2.04, 9.26, repro,
2003-10-31,-0.89, -2.15, 14.08, 2.21, 1.67, 7.53, repro,
2003-11-01,0.33, -0.53, 7.32, 2.20, 1.66, 7.53, repro,
2003-11-02,-0.00, -1.70, 8.02, 2.13, 1.60, 7.22, repro,
2003-11-03,1.25, -1.09, 5.21, 2.14, 1.62, 7.32, repro,
2003-11-04,-0.94, -1.74, 10.89, 2.14, 1.60, 7.26, repro,
2003-11-05,0.91, -1.46, 8.19, 2.14, 1.60, 7.27, repro,
2003-11-06,-1.64, -0.88, 11.10, 2.15, 1.61, 7.36, repro,
2003-11-07,0.05, -1.63, 14.36, 2.15, 1.62, 7.31, repro,
2003-11-08,-1.29, -1.75, 13.20, 2.19, 1.64, 7.40, repro,
2003-11-09,0.41, -1.67, 11.05, 2.25, 1.68, 7.62, repro,
2003-11-10,-0.11, -1.41, 9.51, 2.20, 1.62, 7.36, repro,
2003-11-11,-0.40, -0.71, 11.67, 2.27, 1.68, 7.61, repro,
2003-11-12,-0.57, -0.26, 11.27, 2.13, 1.61, 7.24, repro,
2003-11-13,0.65, 2.66, 13.18, 2.19, 1.70, 7.62, repro,
2003-11-14,-2.18, -0.36, 16.81, 2.23, 1.71, 7.73, repro,
2003-11-15,-2.09, 0.74, 15.14, 2.25, 1.68, 7.61, repro,
2003-11-16,-1.13, -1.83, 14.02, 2.23, 1.64, 7.53, repro,
2003-11-17,0.12, 0.20, 1.60, 2.22, 1.64, 7.38, repro,
2003-11-18,-0.34, -0.42, 8.04, 2.22, 1.64, 7.38, repro,
2003-11-19,-0.83, 0.57, 9.17, 2.14, 1.61, 7.27, repro,
2003-11-20,-0.52, 1.32, 6.19, 2.55, 1.93, 8.66, repro,
2003-11-21,-2.93, -0.27, 16.17, 2.17, 1.63, 7.41, repro,
2003-11-22,-1.00, -0.99, 12.95, 2.29, 1.66, 7.69, repro,
2003-11-23,0.67, -0.37, 1.50, 2.29, 1.66, 7.67, repro,
2003-11-24,-0.06, -0.41, 8.72, 2.21, 1.66, 7.46, repro,
2003-11-25,1.36, -1.33, 20.29, 2.28, 1.73, 7.81, repro,
2003-11-26,-1.09, -0.94, 8.13, 2.19, 1.64, 7.41, repro,
2003-11-27,-1.02, -0.01, 9.89, 2.21, 1.63, 7.41, repro,
2003-11-28,2.27, -0.42, 2.57, 2.18, 1.62, 7.37, repro,
2003-11-29,1.43, 0.32, 19.06, 2.24, 1.65, 7.57, repro,
2003-11-30,-2.88, -0.35, 17.39, 2.27, 1.66, 7.59, repro,
2003-12-01,-1.29, -0.56, 9.07, 2.15, 1.60, 7.30, repro,
2003-12-02,-2.46, -0.58, 11.72, 2.29, 1.73, 7.87, repro,
2003-12-03,-0.69, -0.33, -0.26, 2.45, 1.83, 8.22, repro,
2003-12-04,-0.94, -2.02, 2.86, 2.28, 1.67, 7.78, repro,
2003-12-05,-2.07, -1.32, 3.52, 2.26, 1.67, 7.67, repro,
2003-12-06,-1.16, -2.86, 2.50, 2.21, 1.64, 7.50, repro,
2003-12-07,2.58, -2.18, 1.35, 2.21, 1.66, 7.58, repro,
2003-12-08,-1.19, -0.17, 5.96, 2.32, 1.72, 7.91, repro,
2003-12-09,-1.00, -2.07, 0.86, 2.21, 1.64, 7.52, repro,
2003-12-10,-1.03, -1.25, 1.42, 2.38, 1.72, 7.99, repro,
2003-12-11,-3.31, -1.18, 8.29, 2.57, 1.81, 8.14, repro,
2003-12-12,-3.57, -1.83, 2.73, 2.34, 1.74, 7.73, repro,
2003-12-13,-2.32, -2.65, 3.97, 2.35, 1.72, 7.76, repro,
2003-12-14,-0.54, -0.46, -2.99, 2.45, 1.76, 8.02, repro,
2003-12-15,-0.75, -4.71, 2.07, 2.17, 1.62, 7.42, repro,
2003-12-16,1.32, -3.42, 7.88, 2.29, 1.69, 7.79, repro,
2003-12-17,-1.63, -0.69, 6.81, 2.38, 1.75, 8.12, repro,
2003-12-18,-3.48, 0.42, 4.97, 2.33, 1.72, 7.98, repro,
2003-12-19,-4.60, -1.49, 12.92, 2.36, 1.73, 7.91, repro,
2003-12-20,-2.34, -0.87, 2.09, 2.36, 1.76, 8.24, repro,
2003-12-21,0.77, -1.81, 3.88, 2.51, 1.88, 8.65, repro,
2003-12-22,-1.00, -0.51, -1.03, 2.40, 1.82, 8.39, repro,
2003-12-23,-1.31, -1.57, 0.97, 2.35, 1.79, 8.20, repro,
2003-12-24,-0.49, -1.89, -0.22, 2.41, 1.79, 8.29, repro,
2003-12-25,-2.03, -2.16, 6.08, 2.53, 1.83, 8.65, repro,
2003-12-26,-3.27, -1.34, 5.17, 2.22, 1.66, 7.59, repro,
2003-12-27,-1.48, -2.26, -1.07, 2.25, 1.68, 7.65, repro,
2003-12-28,-3.78, -0.10, 0.86, 2.32, 1.78, 8.14, repro,
2003-12-29,-0.47, -1.02, 0.40, 2.22, 1.67, 7.63, repro,
2003-12-30,-1.58, -1.31, 4.72, 2.22, 1.68, 7.62, repro,
2003-12-31,-2.20, -1.46, 5.44, 2.15, 1.62, 7.29, repro,
2004-01-01,-0.97, -2.44, 5.03, 2.32, 1.70, 7.86, repro,
2004-01-02,-1.46, -1.81, 3.94, 2.29, 1.72, 7.95, repro,
2004-01-03,-2.05, -0.91, -0.34, 2.33, 1.80, 8.15, repro,
2004-01-04,-3.23, -0.71, 5.40, 2.25, 1.74, 7.83, repro,
2004-01-05,-2.34, -2.24, 10.00, 2.29, 1.75, 8.00, repro,
2004-01-06,-1.27, -1.05, 5.17, 2.21, 1.70, 7.73, repro,
2004-01-07,-3.18, -1.07, 5.87, 2.24, 1.75, 7.82, repro,
2004-01-08,-2.11, -0.95, 6.38, 2.28, 1.76, 7.94, repro,
2004-01-09,-1.27, -0.53, -2.15, 2.35, 1.85, 8.15, repro,
2004-01-10,-1.02, -1.34, -1.36, 2.12, 1.63, 7.38, repro,
2004-01-11,-2.43, -1.56, 6.61, 2.33, 1.68, 7.81, repro,
2004-01-12,-1.66, -0.08, 1.92, 2.38, 1.81, 8.21, repro,
2004-01-13,-4.15, -0.76, 2.90, 2.27, 1.75, 7.77, repro,
2004-01-14,-3.80, -3.46, 9.33, 2.22, 1.69, 7.59, repro,
2004-01-15,-3.36, -5.95, 4.86, 2.25, 1.67, 7.45, repro,
2004-01-16,-3.34, -5.61, 2.31, 2.43, 1.80, 8.00, repro,
2004-01-17,-2.58, -0.42, 3.58, 2.29, 1.69, 7.58, repro,
2004-01-18,-2.20, 0.30, 1.90, 2.29, 1.76, 7.84, repro,
2004-01-19,-1.19, 2.03, 3.38, 2.29, 1.75, 7.76, repro,
2004-01-20,-0.37, 0.26, 4.30, 2.17, 1.71, 7.68, repro,
2004-01-21,-3.13, -0.79, 2.65, 2.32, 1.80, 8.00, repro,
2004-01-22,-2.08, -0.76, -0.86, 2.23, 1.74, 7.77, repro,
2004-01-23,-6.21, 0.19, 2.12, 2.50, 1.86, 8.38, repro,
2004-01-24,-2.61, -0.21, 9.16, 2.31, 1.73, 7.76, repro,
2004-01-25,-1.95, -1.09, -0.80, 2.30, 1.73, 7.73, repro,
2004-01-26,-3.90, -0.64, 4.20, 2.34, 1.77, 7.79, repro,
2004-01-27,-3.17, -2.04, 2.58, 2.24, 1.68, 7.58, repro,
2004-01-28,-4.08, -0.32, 8.73, 2.41, 1.83, 8.26, repro,
2004-01-29,-2.53, 0.27, 14.55, 2.23, 1.74, 7.71, repro,
2004-01-30,-3.66, 1.04, 8.35, 2.30, 1.75, 7.74, repro,
2004-01-31,-3.66, -0.64, 5.04, 2.23, 1.72, 7.61, repro,
2004-02-01,-3.97, -0.43, 1.75, 2.23, 1.64, 7.31, repro,
2004-02-02,-2.29, -1.85, -6.08, 2.12, 1.60, 7.20, repro,
2004-02-03,-2.47, -1.82, -5.69, 2.22, 1.66, 7.39, repro,
2004-02-04,-1.88, -0.29, -10.03, 2.28, 1.75, 7.64, repro,
2004-02-05,-3.38, 0.19, -1.32, 2.14, 1.60, 7.21, repro,
2004-02-06,-3.75, -0.64, 4.38, 2.20, 1.70, 7.57, repro,
2004-02-07,2.69, 2.33, 6.41, 2.19, 1.68, 7.53, repro,
2004-02-08,-3.01, 0.83, 3.20, 2.21, 1.63, 7.34, repro,
2004-02-09,-1.43, 0.30, -0.48, 2.14, 1.61, 7.32, repro,
2004-02-10,-3.30, 0.04, -0.30, 2.15, 1.61, 7.30, repro,
2004-02-11,-3.26, -0.26, 5.31, 2.11, 1.59, 7.20, repro,
2004-02-12,-3.53, -0.95, 5.56, 2.15, 1.63, 7.36, repro,
2004-02-13,-4.06, 0.64, 13.96, 2.22, 1.67, 7.57, repro,
2004-02-14,-2.42, -0.76, 6.66, 2.13, 1.60, 7.26, repro,
2004-02-15,-2.21, -0.55, -0.51, 2.23, 1.70, 7.72, repro,
2004-02-16,-1.72, -0.72, -3.00, 2.26, 1.71, 7.68, repro,
2004-02-17,-1.16, -1.71, -3.19, 2.17, 1.60, 7.35, repro,